Location: Maccacari
(45.1333°N, 11.1333°E)
Time: 08:14:55
(UTC+00:00)

SR - Pass Details

Date: 22 January 2021
Orbit: 573 x 882 km, 66.7° (Epoch: 04 March)

Event Time Altitude Azimuth Distance (km) Brightness Sun altitude
Exits shadow 05:26:05 18° 259° (W) 1,666 ? -13.9°
Maximum altitude 05:29:04 34° 314° (NW) 1,175 ? -13.4°
Drops below altitude 10° 05:33:53 10° 19° (NNE) 2,319 ? -12.6°
Sets 05:36:37 0° 29° (NNE) 3,304 ? -12.1°
